Terug naar catalogus

COSMOS 1275 DEB

ActiefPO
NORAD 42206·DEBRIS·🇷🇺 Russia

Gelanceerd Jun 4, 1981 vanaf Plesetsk Cosmodrome

Loading…

Volgende Passages (komende 24 uur)

TLE

VersSource: Space-Track

Epoch: Sep 12, 2026, 02:42 UTC

1 42206U 81053TW  26255.11259468  .00000507  00000-0  40764-3 0  9993
2 42206  82.9224  22.6925 0038712 242.9435 238.1324 13.88393476517041

Volg COSMOS 1275 DEB in realtime met AllMySat

Download on the App Store